User: anonymous   Login
Location: Ayer Observatory
(42.2600°N, 71.0700°W)
Time: 05:34:52
(UTC-04:00)
Language:

Max Valier Satellite - Orbit

View from above orbital plane
View from above orbital plane
View from above satellite
View from above satellite

Ground track
Ground track

The orbit data is extracted from the following two-line orbital elements,

1 42778U 17036P   19198.71901955  .00000600  00000-0  29177-4 0  9996
2 42778  97.3525 255.7440 0014002 119.0762 241.1878 15.22046987114653
Epoch (UTC): 17 July 2019 17:15:23
Eccentricity: 0.0014002
inclination: 97.3525°
perigee height: 490 km
apogee height: 509 km
right ascension of ascending node: 255.7440°
argument of perigee: 119.0762°
revolutions per day: 15.22046987
mean anomaly at epoch: 241.1878°
orbit number at epoch: 11465

The dashed part of the orbit path shows where the satellite is in the earth's shadow,  

DLR